User: anonymous   Login
Location: Hohe Wand Kleine Kanzel
(47.8330°N, 16.0170°E)
Time: 13:31:23
(UTC+02:00)
Language:

Vanguard 3 - Orbit

View from above orbital plane
View from above orbital plane
View from above satellite
View from above satellite

Ground track
Ground track

The orbit data is extracted from the following two-line orbital elements,

1 00020U 59007A   21215.55711537  .00000050  00000-0  80761-5 0  9990
2 00020  33.3530 153.7691 1665925 292.9995  50.3666 11.55808820278294
Epoch (UTC): 03 August 2021 13:22:14
Eccentricity: 0.1665925
inclination: 33.3530°
perigee height: 508 km
apogee height: 3261 km
right ascension of ascending node: 153.7691°
argument of perigee: 292.9995°
revolutions per day: 11.55808820
mean anomaly at epoch: 50.3666°
orbit number at epoch: 27829

The dashed part of the orbit path shows where the satellite is in the earth's shadow,  

DLR